Location: Table Mountain
(47.2500°N, 120.5778°W)
Time: 06:49:23
(UTC-07:00)

Vanguard 1 Rocket - Visible Passes

Search period start: 22 October 2017 00:00
Search period end: 01 November 2017 00:00
Orbit: 655 x 4222 km, 34.3° (Epoch: 21 October)

Date Brightness Start Highest point End Pass type
(mag) Time Alt. Az. Time Alt. Az. Time Alt. Az.
22 Oct 10.3 06:16:05 10° SSW 06:21:08 15° SSE 06:25:00 10° SE visible
23 Oct 10.6 05:05:53 10° S 05:09:53 12° SSE 05:13:11 10° SE visible
24 Oct 10.0 06:17:06 10° SSW 06:24:18 20° SSE 06:29:14 10° ESE visible
25 Oct 10.4 05:05:28 10° SSW 05:13:01 18° SSE 05:18:22 10° ESE visible
26 Oct 10.8 03:54:56 10° S 04:01:23 14° SSE 04:06:24 10° SE visible
26 Oct 9.8 06:18:38 10° SW 06:27:26 25° S 06:33:01 10° ESE visible
27 Oct 10.2 05:06:12 10° SSW 05:16:07 23° SSE 05:22:31 10° ESE visible
28 Oct 10.6 03:58:42 16° S 04:04:26 20° SSE 04:11:24 10° ESE visible
28 Oct 9.6 06:20:30 10° SW 06:30:32 30° S 06:36:35 10° ESE visible
29 Oct 10.9 02:52:03 15° SSE 02:52:25 15° SSE 02:58:58 10° ESE visible
29 Oct 10.0 05:09:23 13° SW 05:19:12 29° SSE 05:26:18 10° ESE visible
30 Oct 10.4 04:02:38 22° S 04:07:27 26° SSE 04:15:32 10° ESE visible
30 Oct 9.5 06:22:34 10° WSW 06:33:36 34° S 06:40:01 10° ESE visible
31 Oct 10.7 02:55:50 21° SSE 02:55:50 21° SSE 03:03:58 10° ESE visible
31 Oct 9.8 05:13:09 18° SW 05:22:14 34° S 05:29:51 10° ESE visible
